User: anonymous   Login
Location: Unspecified
(0.0000°N, 0.0000°E)
Time: 09:25:00
(UTC+00:00)
Language:

SKYMED 3 - Orbit

View from above orbital plane
View from above orbital plane
View from above satellite
View from above satellite

Ground track
Ground track

The orbit data is extracted from the following two-line orbital elements,

1 33412U 08054A   18018.75583047  .00000361  00000-0  51895-4 0  9999
2 33412  97.8862 204.3852 0001666  83.3884 276.7527 14.82150576499582
Epoch (UTC): 18 January 2018 18:08:23
Eccentricity: 0.0001666
inclination: 97.8862°
perigee height: 621 km
apogee height: 624 km
right ascension of ascending node: 204.3852°
argument of perigee: 83.3884°
revolutions per day: 14.82150576
mean anomaly at epoch: 276.7527°
orbit number at epoch: 49958

The dashed part of the orbit path shows where the satellite is in the earth's shadow,  

DLR